Location: Gwatt
(46.7204°N, 7.6223°E)
Time: 14:13:01
(UTC+00:00)

S-56A Canister/Altair - Pass Details

Date: 23 January 2021
Orbit: 632 x 2501 km, 38.9° (Epoch: 28 February)

Event Time Altitude Azimuth Distance (km) Brightness Sun altitude
Rises 01:33:35 0° 213° (SSW) 3,044 - -54.4°
Reaches altitude 10° 01:36:55 10° 189° (S) 2,026 - -53.9°
Maximum altitude 01:39:26 15° 154° (SSE) 1,704 - -53.6°
Drops below altitude 10° 01:41:57 10° 119° (ESE) 2,027 - -53.2°
Sets 01:45:17 0° 96° (E) 3,047 - -52.8°
